Location: Alfortville
(48.8058°N, 2.4204°E)
Time: 05:08:57
(UTC+00:00)

USA 229 DEB - Pass Details

Date: 29 May 2022
Orbit: 934 x 1278 km, 63.4° (Epoch: 24 May)

Event Time Altitude Azimuth Distance (km) Brightness Sun altitude
Rises 00:36:48 0° 315° (NW) 3,990 7.2 -18.8°
Reaches altitude 10° 00:39:35 10° 308° (NW) 3,075 6.4 -18.7°
Maximum altitude 00:46:21 40° 243° (WSW) 1,730 4.5 -18.4°
Enters shadow 00:49:43 27° 197° (SSW) 2,176 4.7 -18.3°
